User: anonymous   Login
Location: *
(2.5500°S, 65.9667°W)
Time: 07:41:17
(UTC+00:00)
Language:

Cosmos 2237 Rocket - Orbit

View from above orbital plane
View from above orbital plane
View from above satellite
View from above satellite

Ground track
Ground track

The orbit data is extracted from the following two-line orbital elements,

1 22566U 93016B   22016.81513973 -.00000057  00000-0 -46665-5 0  9994
2 22566  71.0083 151.7032 0008026 109.6656 250.5333 14.14993124488144
Epoch (UTC): 16 January 2022 19:33:48
Eccentricity: 0.0008026
inclination: 71.0083°
perigee height: 836 km
apogee height: 848 km
right ascension of ascending node: 151.7032°
argument of perigee: 109.6656°
revolutions per day: 14.14993124
mean anomaly at epoch: 250.5333°
orbit number at epoch: 48814

The dashed part of the orbit path shows where the satellite is in the earth's shadow,  

DLR